SCP
0 0 0 0 0 0 0 0 0 0 0 0 0 0 0 0 0 0 0 0 0 0 0 0 0 0 0 0 0 0 0 0 0 0 0 0 0 0 0 0 0 0 0
0 0 0 0 0 0 0 0 0 0 0 0 0 0 0 0 0 0 0 0 0 0 0 0 0 0 0 0 0 0 0 0 0 0 0 0 0 0 0 0 0 0 0
0 0 0 0 0 0 0 0 0 0 0 0 0 0 0 0 0 0 0 0 1 0 0 0 0 0 0 0 0 0 0 0 0 0 0 0 0 0 0 0 0 0 0
0 0 0 0 0 0 0 0 0 0 0 0 0 0 0 0 0 0 0 0 1 1 1 0 0 0 0 0 0 0 0 0 0 0 0 0 0 0 0 0 0 0 0
0 0 0 0 0 0 0 0 0 0 0 0 0 0 0 0 0 0 0 0 1 1 1 1 0 0 0 0 0 0 0 0 0 0 0 0 0 0 0 0 0 0 0
0 0 0 0 0 0 0 0 0 0 0 0 0 0 0 0 1 1 1 1 1 1 1 1 1 0 0 0 0 0 0 0 0 0 0 0 0 0 0 0 0 0 0
0 0 0 0 0 0 0 0 0 1 1 0 0 0 1 1 1 1 1 1 1 1 1 1 1 0 0 0 0 0 0 0 0 0 0 0 0 0 0 0 0 0 0
0 -0 -0 0 0 1 1 1 1 1 1 0 1 1 1 1 1 1 1 1 1 1 0 0 0 0 0 0 0 0 0 0 0 0 0 0 0 0 0 0 0 0 0
0 1 0 0 1 1 1 1 1 1 1 1 1 1 1 1 1 0 0 1 1 0 0 0 0 0 0 0 0 0 0 0 0 0 0 0 0 0 0 0 0 0 0
3 2 1 1 1 1 2 1 1 1 2 1 1 1 1 1 1 1 0 1 0 0 0 0 0 0 0 0 0 0 0 0 0 0 0 0 0 0 0 0 0 0 0
2 2 2 2 2 2 2 2 2 1 1 2 2 2 1 0 0 0 0 0 0 0 0 0 0 0 0 0 0 0 0 0 0 0 0 0 0 0 0 0 0 0 0
2 2 1 2 2 2 2 2 2 1 2 2 2 1 1 1 1 1 1 1 1 0 0 0 0 0 0 0 0 0 0 0 0 0 0 0 0 0 0 0 0 0 -0
2 3 3 3 3 3 3 2 2 2 2 2 2 1 1 1 1 1 1 1 0 0 0 0 0 0 0 0 0 0 0 0 0 0 0 0 0 0 0 0 0 0 0
3 4 4 3 3 3 3 2 3 4 4 2 1 1 1 1 1 1 1 0 0 0 0 0 0 0 0 0 0 0 0 0 0 0 0 0 0 0 0 0 0 0 0
4 4 3 3 3 3 3 4 5 4 3 2 1 1 1 1 1 1 0 0 0 0 0 0 0 0 0 0 0 0 -0 -0 0 0 0 0 0 0 0 0 0 0 -0
3 3 3 4 4 3 4 5 5 4 2 1 1 1 1 1 1 0 0 0 0 0 0 0 0 0 0 0 0 0 0 0 0 -0 0 0 0 0 0 0 0 0 0
4 3 4 4 3 4 4 5 4 3 1 1 1 1 1 1 0 0 0 0 0 0 0 0 0 0 0 0 0 0 0 0 0 0 0 0 0 0 0 0 0 0 -0
2 2 3 3 3 4 4 4 3 2 0 0 0 0 1 0 0 0 0 0 0 0 0 0 0 0 0 0 0 0 0 0 0 0 0 0 0 0 0 0 0 0 0
2 3 2 3 3 4 3 3 2 1 0 0 0 0 0 0 0 0 0 0 0 0 0 0 0 0 0 0 0 0 0 0 0 0 0 0 0 0 0 0 0 0 0
2 2 3 3 3 3 3 2 1 0 0 0 0 0 0 0 0 0 0 0 0 0 0 0 0 0 0 0 0 0 0 0 0 0 0 0 0 0 0 0 0 0 0
2 2 3 3 3 3 3 1 1 1 0 0 0 0 0 0 0 0 0 0 0 0 0 0 0 0 0 0 0 0 0 0 0 0 0 0 0 0 0 0 0 0 0
2 3 2 3 3 4 0 0 0 0 0 0 0 0 0 0 0 0 0 0 0 0 0 0 0 0 0 0 0 0 0 0 0 0 0 0 0 0 0 0 0 0 0
4 2 3 3 3 2 0 0 0 0 0 0 0 0 0 0 0 0 0 0 0 0 0 0 0 0 0 0 0 0 0 0 0 0 0 0 0 0 0 0 0 0 0
3 3 3 3 3 1 0 0 0 0 0 0 0 0 0 0 0 0 0 0 0 0 0 0 0 0 0 0 0 0 0 0 0 0 0 0 0 0 0 0 0 0 0
2 3 3 1 1 0 0 0 0 0 0 0 0 0 0 0 0 0 0 0 0 0 0 0 0 0 0 0 0 0 0 0 0 0 0 0 0 0 0 0 0 0 0
3 1 1 1 0 0 0 0 0 0 0 0 0 0 0 0 0 0 0 0 0 0 0 0 0 0 0 0 0 0 0 0 0 0 0 0 0 0 0 0 0 0 0
Wind_Speed_500mb
50 47 41 36 37 36 34 35 34 32 33 34 35 36 34 35 35 37 37 33 30 33 32 30 28 27 28 29 28 21 23 27 31 32 31 33 35 33 33 36 33 30 26
52 50 46 38 35 34 31 30 33 31 32 32 32 33 29 30 28 31 34 32 31 35 36 30 32 33 37 31 31 32 26 27 31 32 33 35 39 33 28 34 30 29 28
55 51 51 44 35 33 31 32 33 33 32 30 28 28 28 25 23 24 26 23 20 22 30 34 39 32 34 31 27 37 31 28 31 32 34 36 37 37 28 34 28 28 28
60 49 54 50 40 37 33 34 35 35 32 30 24 25 26 27 25 26 28 25 22 25 27 29 28 28 31 31 31 29 30 27 30 34 35 38 37 36 28 33 24 22 23
67 56 59 53 45 41 34 35 35 36 34 32 23 25 28 30 31 31 31 31 30 31 33 33 30 34 38 38 32 30 30 28 32 36 38 37 38 36 31 28 27 23 24
68 64 56 56 50 42 38 35 34 36 33 32 28 25 32 32 34 33 34 35 38 39 35 34 35 38 43 44 40 34 30 29 32 37 39 41 36 35 37 33 28 26 24
68 73 69 59 53 42 36 33 33 37 33 35 31 24 31 34 32 29 31 32 35 37 35 36 36 34 32 34 36 39 35 32 33 36 40 41 36 33 32 34 31 26 29
67 63 86 63 53 42 40 36 35 38 35 37 32 19 13 18 25 24 23 25 29 31 27 25 27 27 28 26 30 38 39 36 34 33 40 41 36 35 33 34 33 31 27
56 42 101 74 55 40 42 37 37 39 36 38 35 18 11 13 9 12 12 15 18 25 23 26 24 25 28 28 33 36 40 40 34 33 39 43 38 35 34 35 30 28 25
79 77 96 75 50 45 46 40 39 39 38 39 35 34 34 25 14 10 8 16 26 31 28 25 26 28 27 28 32 39 35 42 37 34 36 43 41 36 33 32 32 29 35
82 74 72 64 48 50 47 45 42 43 41 41 41 37 38 37 33 28 24 18 27 25 28 23 23 23 23 24 27 29 35 37 38 40 35 39 41 39 34 29 30 31 44
78 68 56 57 51 51 47 47 44 42 40 39 41 39 38 35 29 27 24 22 21 20 20 20 20 19 19 20 22 22 31 31 27 30 37 40 39 39 35 32 30 32 33
71 77 67 58 53 50 48 48 46 43 41 42 37 36 34 32 32 24 20 16 16 17 16 17 18 16 16 17 18 21 23 36 36 34 35 39 36 38 34 33 31 34 30
72 69 61 51 48 48 48 49 47 40 40 42 36 36 30 29 28 23 17 15 15 16 13 15 14 13 13 13 14 21 21 24 36 36 37 41 37 36 35 33 31 34 30
65 58 61 51 47 46 48 49 43 39 42 42 38 38 31 29 28 22 25 22 19 15 9 8 7 10 12 13 17 17 18 23 26 33 38 43 39 36 33 31 34 34 36
67 62 69 55 50 47 50 47 40 39 44 39 40 37 32 30 26 23 25 24 23 17 13 9 8 11 12 14 17 20 23 23 26 31 39 41 39 34 32 34 35 35 36
69 68 78 55 51 51 52 45 42 42 41 41 42 36 33 32 25 24 24 24 24 19 17 15 12 10 13 15 17 19 18 22 30 38 38 38 37 35 35 36 34 31 35
69 71 73 55 54 53 52 48 40 46 41 39 39 37 35 32 26 25 25 25 23 23 17 14 15 13 13 13 17 21 16 22 27 34 39 36 34 31 33 38 33 33 27
71 72 65 57 58 55 54 47 42 45 40 36 33 35 35 29 27 27 26 25 23 23 24 16 12 16 19 18 17 24 23 24 29 35 37 33 29 29 38 40 41 30 25
70 69 64 61 57 57 54 44 46 44 39 34 34 35 31 25 26 25 24 23 24 22 25 19 18 19 24 25 24 21 24 26 29 34 36 35 34 31 32 48 31 29 28
68 69 67 61 59 59 50 52 53 45 37 34 35 34 28 24 26 25 24 23 23 22 21 23 22 27 28 32 35 29 23 25 29 34 39 44 40 37 33 40 40 35 32
74 71 66 64 62 55 50 54 51 42 36 35 37 33 26 22 24 26 26 26 22 22 25 28 33 31 30 34 34 42 32 33 33 35 45 44 43 42 44 48 42 41 33
76 70 66 61 55 55 59 57 42 37 40 37 37 28 24 21 23 24 24 23 24 26 30 33 32 35 30 32 36 37 36 33 35 42 44 44 41 39 40 39 36 33 31
71 67 61 55 59 59 61 48 41 37 39 40 35 27 20 18 22 24 24 22 21 23 22 27 30 26 22 23 31 30 36 37 34 41 40 42 37 35 44 41 34 32 32
65 57 58 63 63 64 55 52 46 43 39 37 33 26 21 20 23 25 24 23 25 21 16 21 31 32 24 23 27 35 37 35 38 42 42 41 43 41 42 36 34 33 33
60 61 66 67 67 60 60 51 48 43 39 35 32 26 23 23 23 23 22 21 23 18 16 14 23 27 31 27 29 28 28 33 34 39 45 35 48 50 39 37 35 32 37
Wind_Direction_500mb
249 254 256 261 266 266 268 273 274 276 276 272 267 264 260 260 262 264 260 250 242 236 240 267 270 267 258 270 264 266 258 238 235 234 237 225 215 212 217 216 220 228 229
252 258 261 263 265 265 264 266 270 273 273 272 269 263 257 256 263 267 260 253 253 238 244 262 273 267 249 284 272 262 266 239 238 234 234 225 219 224 236 211 221 225 224
258 262 265 264 261 259 257 260 264 267 270 272 271 261 249 249 262 260 251 255 254 240 251 263 275 265 261 280 261 260 259 245 236 234 229 226 222 230 232 217 224 228 230
256 257 270 265 255 251 253 258 261 262 264 268 269 255 247 248 252 255 252 255 254 255 264 275 278 266 264 269 257 252 247 247 236 232 226 228 225 231 224 221 230 237 237
267 270 264 259 248 247 253 258 258 255 258 261 260 248 245 247 248 256 258 254 254 261 265 267 270 271 269 267 262 252 243 246 239 229 223 226 226 225 229 226 229 233 217
266 262 262 256 245 244 251 261 258 253 250 250 250 243 240 240 249 255 260 263 263 265 269 265 268 266 263 263 259 248 241 241 240 230 221 223 224 217 219 218 220 222 219
248 260 257 250 245 248 256 257 250 247 243 241 246 247 245 247 254 255 257 266 266 270 268 273 272 263 258 254 248 237 238 244 235 229 220 221 219 218 215 217 213 208 208
247 269 275 254 249 249 255 258 251 249 239 234 236 230 246 252 251 247 257 268 269 272 278 278 271 265 259 244 237 233 241 233 233 231 220 218 214 214 210 214 216 208 205
228 255 257 255 249 254 262 257 251 244 240 233 231 214 196 227 181 223 281 274 284 283 292 292 279 266 260 251 243 241 238 226 231 231 226 214 210 210 209 213 211 205 199
243 234 254 245 250 259 262 255 250 245 236 229 221 231 229 237 254 257 276 281 296 287 291 291 276 266 265 263 250 244 240 226 232 240 221 215 210 208 209 212 212 206 196
239 253 245 242 248 256 263 249 245 244 238 228 228 229 225 238 246 251 268 273 281 276 287 287 276 266 266 259 249 240 231 228 232 227 229 210 212 209 210 210 208 203 206
245 244 239 247 246 255 256 246 247 243 236 226 236 227 229 232 232 237 252 261 263 274 273 279 277 266 261 253 243 239 221 214 203 202 198 200 210 208 210 212 203 209 212
249 244 250 250 245 258 250 239 241 240 232 227 224 224 225 230 239 237 241 252 256 267 275 272 274 264 259 252 243 222 213 222 208 207 201 200 206 205 207 212 205 205 203
248 253 244 237 244 255 239 234 234 235 230 222 222 222 217 230 241 242 234 231 262 255 268 250 262 258 256 239 239 230 210 210 214 209 201 199 202 202 206 210 208 206 210
247 246 231 232 247 244 230 230 231 233 220 213 220 223 222 233 243 239 246 246 237 250 245 256 226 253 240 222 223 217 222 208 201 198 195 197 200 200 206 208 206 200 201
244 230 233 231 240 231 224 223 226 220 210 217 218 218 223 239 240 242 243 233 230 231 235 231 256 250 237 218 210 220 227 204 200 195 195 198 201 201 206 205 203 202 192
245 235 233 227 232 224 218 218 220 215 208 218 214 219 230 241 235 232 227 225 229 223 227 245 259 254 224 222 216 224 220 214 203 199 197 199 202 205 205 197 194 185 194
241 228 220 222 224 217 215 216 217 204 210 214 214 223 237 231 226 226 222 221 220 228 223 218 255 235 218 198 199 210 207 196 193 187 194 197 202 205 196 187 182 186 201
222 214 214 221 217 213 212 211 204 203 206 216 217 234 230 225 224 222 220 219 220 232 228 220 231 228 210 201 194 200 197 193 189 188 192 197 199 190 187 185 183 187 194
204 205 215 217 210 208 207 201 194 200 203 211 226 219 218 221 218 215 212 216 224 226 229 221 220 230 211 201 190 195 194 192 190 191 189 187 184 180 188 188 197 203 194
199 210 213 205 203 203 202 191 193 199 203 210 208 208 212 214 215 211 210 216 224 225 222 215 224 226 215 204 200 197 194 187 184 185 183 177 180 182 179 190 188 192 196
203 207 203 200 198 200 198 190 198 194 193 199 203 205 209 215 216 216 216 220 226 239 243 240 232 222 220 213 201 204 203 188 171 179 178 176 179 180 180 184 194 191 197
199 196 194 196 197 196 187 190 185 189 194 199 198 199 209 221 221 219 216 221 251 254 247 246 241 226 225 218 204 200 202 184 187 179 183 180 184 190 187 188 189 197 199
190 191 193 191 190 187 183 176 177 185 190 190 197 205 215 227 218 214 219 241 255 248 249 241 218 203 208 220 212 205 193 196 189 181 183 178 181 182 182 186 191 198 203
187 189 183 182 182 172 173 171 172 176 183 192 198 209 225 221 218 220 236 255 248 228 246 227 203 190 201 203 198 203 199 190 180 180 187 192 186 190 193 200 201 202 209
175 174 176 175 173 173 173 171 177 183 191 198 205 218 223 219 223 233 247 241 217 213 222 181 186 197 200 201 196 199 205 183 190 192 195 189 193 191 192 204 207 214 216
Wind_Speed_850mb
50 47 41 36 37 36 34 35 34 32 33 34 35 36 34 35 35 37 37 33 30 33 32 30 28 27 28 29 28 21 23 27 31 32 31 33 35 33 33 36 33 30 26
52 50 46 38 35 34 31 30 33 31 32 32 32 33 29 30 28 31 34 32 31 35 36 30 32 33 37 31 31 32 26 27 31 32 33 35 39 33 28 34 30 29 28
55 51 51 44 35 33 31 32 33 33 32 30 28 28 28 25 23 24 26 23 20 22 30 34 39 32 34 31 27 37 31 28 31 32 34 36 37 37 28 34 28 28 28
60 49 54 50 40 37 33 34 35 35 32 30 24 25 26 27 25 26 28 25 22 25 27 29 28 28 31 31 31 29 30 27 30 34 35 38 37 36 28 33 24 22 23
67 56 59 53 45 41 34 35 35 36 34 32 23 25 28 30 31 31 31 31 30 31 33 33 30 34 38 38 32 30 30 28 32 36 38 37 38 36 31 28 27 23 24
68 64 56 56 50 42 38 35 34 36 33 32 28 25 32 32 34 33 34 35 38 39 35 34 35 38 43 44 40 34 30 29 32 37 39 41 36 35 37 33 28 26 24
68 73 69 59 53 42 36 33 33 37 33 35 31 24 31 34 32 29 31 32 35 37 35 36 36 34 32 34 36 39 35 32 33 36 40 41 36 33 32 34 31 26 29
67 63 86 63 53 42 40 36 35 38 35 37 32 19 13 18 25 24 23 25 29 31 27 25 27 27 28 26 30 38 39 36 34 33 40 41 36 35 33 34 33 31 27
56 42 101 74 55 40 42 37 37 39 36 38 35 18 11 13 9 12 12 15 18 25 23 26 24 25 28 28 33 36 40 40 34 33 39 43 38 35 34 35 30 28 25
79 77 96 75 50 45 46 40 39 39 38 39 35 34 34 25 14 10 8 16 26 31 28 25 26 28 27 28 32 39 35 42 37 34 36 43 41 36 33 32 32 29 35
82 74 72 64 48 50 47 45 42 43 41 41 41 37 38 37 33 28 24 18 27 25 28 23 23 23 23 24 27 29 35 37 38 40 35 39 41 39 34 29 30 31 44
78 68 56 57 51 51 47 47 44 42 40 39 41 39 38 35 29 27 24 22 21 20 20 20 20 19 19 20 22 22 31 31 27 30 37 40 39 39 35 32 30 32 33
71 77 67 58 53 50 48 48 46 43 41 42 37 36 34 32 32 24 20 16 16 17 16 17 18 16 16 17 18 21 23 36 36 34 35 39 36 38 34 33 31 34 30
72 69 61 51 48 48 48 49 47 40 40 42 36 36 30 29 28 23 17 15 15 16 13 15 14 13 13 13 14 21 21 24 36 36 37 41 37 36 35 33 31 34 30
65 58 61 51 47 46 48 49 43 39 42 42 38 38 31 29 28 22 25 22 19 15 9 8 7 10 12 13 17 17 18 23 26 33 38 43 39 36 33 31 34 34 36
67 62 69 55 50 47 50 47 40 39 44 39 40 37 32 30 26 23 25 24 23 17 13 9 8 11 12 14 17 20 23 23 26 31 39 41 39 34 32 34 35 35 36
69 68 78 55 51 51 52 45 42 42 41 41 42 36 33 32 25 24 24 24 24 19 17 15 12 10 13 15 17 19 18 22 30 38 38 38 37 35 35 36 34 31 35
69 71 73 55 54 53 52 48 40 46 41 39 39 37 35 32 26 25 25 25 23 23 17 14 15 13 13 13 17 21 16 22 27 34 39 36 34 31 33 38 33 33 27
71 72 65 57 58 55 54 47 42 45 40 36 33 35 35 29 27 27 26 25 23 23 24 16 12 16 19 18 17 24 23 24 29 35 37 33 29 29 38 40 41 30 25
70 69 64 61 57 57 54 44 46 44 39 34 34 35 31 25 26 25 24 23 24 22 25 19 18 19 24 25 24 21 24 26 29 34 36 35 34 31 32 48 31 29 28
68 69 67 61 59 59 50 52 53 45 37 34 35 34 28 24 26 25 24 23 23 22 21 23 22 27 28 32 35 29 23 25 29 34 39 44 40 37 33 40 40 35 32
74 71 66 64 62 55 50 54 51 42 36 35 37 33 26 22 24 26 26 26 22 22 25 28 33 31 30 34 34 42 32 33 33 35 45 44 43 42 44 48 42 41 33
76 70 66 61 55 55 59 57 42 37 40 37 37 28 24 21 23 24 24 23 24 26 30 33 32 35 30 32 36 37 36 33 35 42 44 44 41 39 40 39 36 33 31
71 67 61 55 59 59 61 48 41 37 39 40 35 27 20 18 22 24 24 22 21 23 22 27 30 26 22 23 31 30 36 37 34 41 40 42 37 35 44 41 34 32 32
65 57 58 63 63 64 55 52 46 43 39 37 33 26 21 20 23 25 24 23 25 21 16 21 31 32 24 23 27 35 37 35 38 42 42 41 43 41 42 36 34 33 33
60 61 66 67 67 60 60 51 48 43 39 35 32 26 23 23 23 23 22 21 23 18 16 14 23 27 31 27 29 28 28 33 34 39 45 35 48 50 39 37 35 32 37
Wind_Direction_850mb
249 254 256 261 266 266 268 273 274 276 276 272 267 264 260 260 262 264 260 250 242 236 240 267 270 267 258 270 264 266 258 238 235 234 237 225 215 212 217 216 220 228 229
252 258 261 263 265 265 264 266 270 273 273 272 269 263 257 256 263 267 260 253 253 238 244 262 273 267 249 284 272 262 266 239 238 234 234 225 219 224 236 211 221 225 224
258 262 265 264 261 259 257 260 264 267 270 272 271 261 249 249 262 260 251 255 254 240 251 263 275 265 261 280 261 260 259 245 236 234 229 226 222 230 232 217 224 228 230
256 257 270 265 255 251 253 258 261 262 264 268 269 255 247 248 252 255 252 255 254 255 264 275 278 266 264 269 257 252 247 247 236 232 226 228 225 231 224 221 230 237 237
267 270 264 259 248 247 253 258 258 255 258 261 260 248 245 247 248 256 258 254 254 261 265 267 270 271 269 267 262 252 243 246 239 229 223 226 226 225 229 226 229 233 217
266 262 262 256 245 244 251 261 258 253 250 250 250 243 240 240 249 255 260 263 263 265 269 265 268 266 263 263 259 248 241 241 240 230 221 223 224 217 219 218 220 222 219
248 260 257 250 245 248 256 257 250 247 243 241 246 247 245 247 254 255 257 266 266 270 268 273 272 263 258 254 248 237 238 244 235 229 220 221 219 218 215 217 213 208 208
247 269 275 254 249 249 255 258 251 249 239 234 236 230 246 252 251 247 257 268 269 272 278 278 271 265 259 244 237 233 241 233 233 231 220 218 214 214 210 214 216 208 205
228 255 257 255 249 254 262 257 251 244 240 233 231 214 196 227 181 223 281 274 284 283 292 292 279 266 260 251 243 241 238 226 231 231 226 214 210 210 209 213 211 205 199
243 234 254 245 250 259 262 255 250 245 236 229 221 231 229 237 254 257 276 281 296 287 291 291 276 266 265 263 250 244 240 226 232 240 221 215 210 208 209 212 212 206 196
239 253 245 242 248 256 263 249 245 244 238 228 228 229 225 238 246 251 268 273 281 276 287 287 276 266 266 259 249 240 231 228 232 227 229 210 212 209 210 210 208 203 206
245 244 239 247 246 255 256 246 247 243 236 226 236 227 229 232 232 237 252 261 263 274 273 279 277 266 261 253 243 239 221 214 203 202 198 200 210 208 210 212 203 209 212
249 244 250 250 245 258 250 239 241 240 232 227 224 224 225 230 239 237 241 252 256 267 275 272 274 264 259 252 243 222 213 222 208 207 201 200 206 205 207 212 205 205 203
248 253 244 237 244 255 239 234 234 235 230 222 222 222 217 230 241 242 234 231 262 255 268 250 262 258 256 239 239 230 210 210 214 209 201 199 202 202 206 210 208 206 210
247 246 231 232 247 244 230 230 231 233 220 213 220 223 222 233 243 239 246 246 237 250 245 256 226 253 240 222 223 217 222 208 201 198 195 197 200 200 206 208 206 200 201
244 230 233 231 240 231 224 223 226 220 210 217 218 218 223 239 240 242 243 233 230 231 235 231 256 250 237 218 210 220 227 204 200 195 195 198 201 201 206 205 203 202 192
245 235 233 227 232 224 218 218 220 215 208 218 214 219 230 241 235 232 227 225 229 223 227 245 259 254 224 222 216 224 220 214 203 199 197 199 202 205 205 197 194 185 194
241 228 220 222 224 217 215 216 217 204 210 214 214 223 237 231 226 226 222 221 220 228 223 218 255 235 218 198 199 210 207 196 193 187 194 197 202 205 196 187 182 186 201
222 214 214 221 217 213 212 211 204 203 206 216 217 234 230 225 224 222 220 219 220 232 228 220 231 228 210 201 194 200 197 193 189 188 192 197 199 190 187 185 183 187 194
204 205 215 217 210 208 207 201 194 200 203 211 226 219 218 221 218 215 212 216 224 226 229 221 220 230 211 201 190 195 194 192 190 191 189 187 184 180 188 188 197 203 194
199 210 213 205 203 203 202 191 193 199 203 210 208 208 212 214 215 211 210 216 224 225 222 215 224 226 215 204 200 197 194 187 184 185 183 177 180 182 179 190 188 192 196
203 207 203 200 198 200 198 190 198 194 193 199 203 205 209 215 216 216 216 220 226 239 243 240 232 222 220 213 201 204 203 188 171 179 178 176 179 180 180 184 194 191 197
199 196 194 196 197 196 187 190 185 189 194 199 198 199 209 221 221 219 216 221 251 254 247 246 241 226 225 218 204 200 202 184 187 179 183 180 184 190 187 188 189 197 199
190 191 193 191 190 187 183 176 177 185 190 190 197 205 215 227 218 214 219 241 255 248 249 241 218 203 208 220 212 205 193 196 189 181 183 178 181 182 182 186 191 198 203
187 189 183 182 182 172 173 171 172 176 183 192 198 209 225 221 218 220 236 255 248 228 246 227 203 190 201 203 198 203 199 190 180 180 187 192 186 190 193 200 201 202 209
175 174 176 175 173 173 173 171 177 183 191 198 205 218 223 219 223 233 247 241 217 213 222 181 186 197 200 201 196 199 205 183 190 192 195 189 193 191 192 204 207 214 216